sat.trackr.live / text

‹ back to catalog

STARLINK-30896

NORAD 58353 · 2023-177C

PAYLOAD ACTIVE UNKNOWN

§ Identity

Operator
Country
US
Launch date
2023-11-18
Launch site
AFETR
Launch vehicle
Mass (kg)
RCS (m²)

Purposes: comms

External: N2YO · Heavens-Above · Gunter

§ Orbital elements

Epoch: 2026-09-19T16:30:14.866848Z

Period
94.27 min
Inclination
43.0007°
Eccentricity
0.0001152
Mean motion
15.27577727 rev/d
Perigee alt
482.3 km
Apogee alt
483.8 km
Semi-major
6,861.2 km
B*
5.9200e-5
RAAN
193.2069°
Arg perigee
268.1386°
Mean anomaly
91.9333°
Rev number
15,950

§ Raw data

STARLINK-308961 58353U 23177C   26262.68767207  .00001367  00000+0  59200-4 0  99912 58353  43.0007 193.2069 0001152 268.1386  91.9333 15.27577727159501

JSON: /api/v1/satellites/58353 · /tle

For live sub-satellite position, see the globe view (requires WebGL).

§ Visibility from observer

Set your observer location to see the next 7 days of passes ≥ 10°. The values pass through the URL so the page stays shareable.

No JS? Fill the form by hand. The geolocation button needs JavaScript.